This demonstration page uses our WeatherBlox Daily Observations layout. Learn more.

Left ArrowRight Arrow

Hourly Observations for February 18, 2016

Temp ( °F °C ) Dew Point ( °F °C ) Humidity (%) Winds ( mph kmh ) Pressure ( in mb ) Visibility ( mi km ) Precip ( " mm )
12:58 am 00:58 Clear 38 3.6 34 1.2 85 85 E 10 17 30.03 1017 10 16 0.00 0.00
1:58 am 01:58 Clear 38 3.5 34 1.1 84 84 E 13 20 30.00 1016 10 16 0.00 0.00
2:58 am 02:58 Clear 38 3.2 33 0.7 84 84 ESE 13 20 29.98 1015 10 16 0.00 0.00
3:58 am 03:58 Cloudy 38 3.6 33 0.8 82 82 ESE 14 22 29.95 1014 10 16 0.00 0.00
4:58 am 04:58 Cloudy 38 3.6 33 0.6 81 81 E 14 22 29.91 1013 10 16 0.00 0.00
5:58 am 05:58 Partly Cloudy 39 3.9 33 0.6 79 79 ESE 15 24 29.89 1012 10 16 0.00 0.00
6:58 am 06:58 Mostly Cloudy 40 4.6 33 0.7 76 76 ESE 17 28 29.84 1011 10 16 0.00 0.00
7:58 am 07:58 Sunny 41 4.8 34 1 77 77 SE 10 17 29.83 1010 10 16 0.00 0.00
9:58 am 09:58 Mostly Sunny 44 6.9 36 2.4 73 73 ESE 15 24 29.78 1008 10 16 0.00 0.00
10:58 am 10:58 Mostly Cloudy 50 10.1 40 4.3 68 68 SSE 17 28 29.73 1007 10 16 0.00 0.00
11:58 am 11:58 Mostly Sunny 56 13.5 43 6 61 61 SSE 14 22 29.68 1005 10 16 0.00 0.00
12:58 pm 12:58 Sunny 61 16.3 44 6.7 53 53 S 18 30 29.62 1003 10 16 0.00 0.00
1:58 pm 13:58 Sunny 63 17.1 45 7 52 52 SSE 18 30 29.60 1002 10 16 0.00 0.00
2:58 pm 14:58 Sunny 65 18.4 45 7.2 48 48 SE 16 26 29.55 1001 10 16 0.00 0.00
3:58 pm 15:58 Sunny 65 18.5 47 8.4 52 52 SE 6 9 29.53 1000 10 16 0.00 0.00
4:58 pm 16:58 Sunny 66 18.9 47 8.5 51 51 S 5 7 29.53 1000 10 16 0.00 0.00
5:58 pm 17:58 Sunny 56 13.2 47 8.1 71 71 E 6 9 29.52 1000 10 16 0.00 0.00
6:58 pm 18:58 Clear 49 9.3 43 6 80 80 ESE 5 7 29.50 999 10 16 0.00 0.00
7:58 pm 19:58 Clear 44 6.4 40 4.6 88 88 E 7 11 29.49 999 10 16 0.00 0.00
8:58 pm 20:58 Clear 49 9.5 42 5.5 76 76 SE 8 13 29.47 998 10 16 0.00 0.00
9:58 pm 21:58 Clear 48 8.7 42 5.7 82 82 E 5 7 29.45 997 10 16 0.00 0.00
10:58 pm 22:58 Clear 46 7.8 42 5.7 87 87 SSE 3 6 29.45 997 10 16 0.00 0.00
11:58 pm 23:58 Clear 41 5.1 40 4.7 97 97 E 5 7 29.40 996 10 16 0.00 0.00

Powered by AerisWeather